RH
56 55 52 53 63 66 68 71 74 74 73 70 55 55 59 63 58 59 59 68 77 77
60 54 58 61 56 51 58 65 66 68 70 67 65 58 52 51 55 54 55 57 63 66
70 67 62 56 55 57 51 48 59 64 65 66 65 60 54 48 49 47 51 56 61 60
68 71 72 60 58 54 52 52 46 46 56 59 62 64 63 60 59 58 47 51 57 60
57 60 60 64 64 64 69 65 62 54 51 51 54 54 57 59 60 64 62 53 59 61
20 25 34 40 48 55 56 53 58 64 62 62 55 54 53 52 55 57 56 56 62 71
15 14 15 17 23 30 36 40 43 49 58 60 63 66 64 62 61 56 57 59 56 62
14 16 16 17 14 16 19 23 27 36 43 46 49 57 65 66 68 67 61 62 63 64
15 16 17 17 18 18 18 21 20 21 24 30 36 40 42 52 58 62 65 68 71 65
19 18 18 18 17 18 20 23 23 24 24 23 21 20 19 26 37 46 53 56 64 72
22 20 17 15 14 16 21 22 23 23 24 25 25 25 21 19 17 23 33 42 47 56
25 25 25 25 24 21 20 21 23 24 25 26 25 25 22 22 25 26 23 21 26 33
23 23 24 25 26 28 28 27 27 28 28 27 27 26 23 24 28 26 27 29 27 24
22 23 24 25 24 24 25 27 27 30 31 31 31 30 31 31 31 33 35 35 35 34